Printer-friendly version
Follow the MPC on Twitter Follow the MPC on Facebook The MPC blog
Minor Planet Center

MPEC 2010-G27 : COMET C/2010 G1 (BOATTINI)

The following Minor Planet Electronic Circular may be linked-to from your own Web pages, but must not otherwise be redistributed electronically.

A form allowing access to any MPEC is at the bottom of this page.


Read MPEC 2010-G26 Read MPEC 2010-G28


M.P.E.C. 2010-G27                                Issued 2010 Apr. 6, 03:51 UT

     The Minor Planet Electronic Circulars contain information on unusual
         minor planets and routine data on comets.  They are published
   on behalf of Commission 20 of the International Astronomical Union by the
          Minor Planet Center, Smithsonian Astrophysical Observatory,
                          Cambridge, MA 02138, U.S.A.

             Prepared using the Tamkin Foundation Computer Network

                              MPC@CFA.HARVARD.EDU
       URL http://www.minorplanetcenter.org/iau/mpc.html  ISSN 1523-6714

                          COMET C/2010 G1 (BOATTINI)

Observations:
    CK10G010  C2010 04 05.12030 04 08 50.37 +27 39 02.3          13.9 T EG027703
    CK10G010  C2010 04 05.12483 04 08 51.22 +27 38 49.9          14.2 T EG027703
    CK10G010  C2010 04 05.12942 04 08 52.23 +27 38 38.2          14.5 T EG027703
    CK10G010  C2010 04 05.13400 04 08 53.17 +27 38 25.2          14.2 T EG027703
    CK10G010  C2010 04 05.15575 04 08 57.59 +27 37 30.3          14.2 T EG027703
    CK10G010  C2010 04 05.15609 04 08 57.65 +27 37 30.0          14.2 T EG027703
    CK10G010  C2010 04 05.15643 04 08 57.81 +27 37 29.1          14.1 T EG027703
    CK10G010  C2010 04 05.15677 04 08 57.76 +27 37 28.2          14.3 T EG027703
    CK10G010  C2010 04 05.15745 04 08 57.94 +27 37 27.1          14.1 T EG027703
    CK10G010  C2010 04 05.15789 04 08 58.01 +27 37 25.0          14.2 T EG027703
    CK10G010  C2010 04 05.15836 04 08 58.18 +27 37 25.6          14.2 T EG027703
    CK10G010  C2010 04 05.15882 04 08 58.25 +27 37 23.4          14.1 T EG027703
    CK10G010  C2010 04 05.16741 04 08 59.73 +27 36 59.8          14.8 T EG027G96
    CK10G010  C2010 04 05.16775 04 08 59.83 +27 36 59.0                 EG027G96
    CK10G010  C2010 04 05.16812 04 08 59.93 +27 36 58.0                 EG027G96
    CK10G010  C2010 04 05.16848 04 08 59.95 +27 36 56.8                 EG027G96
    CK10G010  C2010 04 05.17825 04 09 02.00 +27 36 31.8          14.8 T EG027G96
    CK10G010  C2010 04 05.17861 04 09 02.08 +27 36 31.2                 EG027G96
    CK10G010  C2010 04 05.17898 04 09 02.14 +27 36 29.9                 EG027G96
    CK10G010  C2010 04 05.17931 04 09 02.20 +27 36 29.2                 EG027G96
    CK10G010  C2010 04 05.78701 04 11 05.66 +27 10 45.4          17.0 T EG027A99
    CK10G010  C2010 04 05.78931 04 11 06.13 +27 10 39.4          17.0 T EG027A99
    CK10G010  C2010 04 05.79161 04 11 06.59 +27 10 33.6          17.0 T EG027A99
    CK10G010  C2010 04 05.79980 04 11 08.24 +27 10 12.3          15.8 T EG027235
    CK10G010  C2010 04 05.80485 04 11 09.29 +27 09 59.5          16.7 N EG027595
    CK10G010  C2010 04 05.80564 04 11 09.39 +27 09 57.3          16.0 T EG027235
    CK10G010  C2010 04 05.80621 04 11 09.51 +27 09 56.6          17.0 T EG027A99
    CK10G010  C2010 04 05.80851 04 11 10.00 +27 09 50.7          17.0 T EG027A99
    CK10G010  C2010 04 05.80938 04 11 10.18 +27 09 48.2          16.6 N EG027595
    CK10G010  C2010 04 05.81392 04 11 11.11 +27 09 36.6          16.6 N EG027595
    CK10G010  C2010 04 05.82419 04 11 13.17 +27 09 10.5          17.5 N EG027J95
    CK10G010  C2010 04 05.82595 04 11 13.57 +27 09 06.2          17.3 N EG027J95
    CK10G010  C2010 04 05.82632 04 11 13.55 +27 09 03.8          16.2 N EG027B82
    CK10G010  C2010 04 05.82789 04 11 13.83 +27 09 00.9          16.0 N EG027B82
    CK10G010  C2010 04 05.82830 04 11 14.05 +27 09 00.1          17.0 N EG027J95
    CK10G010  C2010 04 05.82948 04 11 14.22 +27 08 56.1          16.0 N EG027B82
    CK10G010  C2010 04 05.82953 04 11 14.26 +27 08 57.6          16.3 T EG027J47
    CK10G010  C2010 04 05.83072 04 11 14.45 +27 08 55.2          17.4 T EG027J47
    CK10G010  C2010 04 05.83149 04 11 14.60 +27 08 53.3          17.3 T EG027J47
    CK10G010  C2010 04 05.83184 04 11 14.67 +27 08 52.2          16.1 N EG027B82
    CK10G010  C2010 04 05.83372 04 11 15.25 +27 08 48.8          16.6 T EG027J47
    CK10G010  C2010 04 05.83579 04 11 15.42 +27 08 42.9          16.9 T EG027J47
    CK10G010  C2010 04 05.83738 04 11 15.89 +27 08 36.8          16.1 N EG027B82
    CK10G010  C2010 04 05.83977 04 11 16.29 +27 08 31.1                 EG027204
    CK10G010  C2010 04 05.84132 04 11 16.69 +27 08 27.1          16.1 N EG027B82
    CK10G010  C2010 04 05.84322 04 11 16.96 +27 08 22.1                 EG027204
    CK10G010  C2010 04 05.84527 04 11 17.39 +27 08 16.9          16.1 N EG027B82
    CK10G010  C2010 04 05.84706 04 11 17.75 +27 08 12.0          16.5 N EG027204
    CK10G010  C2010 04 05.84920 04 11 18.21 +27 08 06.4          16.0 N EG027B82
    CK10G010  C2010 04 05.85315 04 11 19.02 +27 07 56.2          16.1 N EG027B82
    CK10G010  C2010 04 05.85710 04 11 19.71 +27 07 45.9          16.1 N EG027B82
    CK10G010  C2010 04 06.12683 04 12 13.93 +26 56 26.3          16.3 T EG027854
    CK10G010  C2010 04 06.12745 04 12 14.03 +26 56 24.1          16.3 T EG027854
    CK10G010  C2010 04 06.12805 04 12 14.17 +26 56 22.9          16.3 T EG027854

Observer details:
204 Schiaparelli Observatory.  Observer L. Buzzi.  0.60-m f/4.64 reflector
    + CCD.
235 CAST Observatory, Talmassons.  Observer R. Ligustri.  0.35-m f/6 reflector
    + CCD.
595 Farra d'Isonzo.  Observer E. Pettarin.  0.40-m f/4.5 reflector + CCD.
703 Catalina Sky Survey.  Observer A. Boattini.  Measurers J. D. Ahern,
    E. C. Beshore, A. Boattini, A. R. Gibbs, A. D. Grauer, R. E. Hill,
    R. A. Kowalski, S. M. Larson.  0.68-m Schmidt + CCD.
854 Sabino Canyon Observatory, Tucson.  Observer J. E. McGaha.  0.36-m f/10.0
    Schmidt-Cassegrain + CCD.
A99 Osservatorio del Monte Baldo.  Observer C. Flavio.  Measurer M. Claudio.
    0.4-m f/8 Ritchey-Chretien + CCD.
B82 Maidbronn.  Observer B. Haeusler.  0.30-m Schmidt-Cassegrain + CCD.
G96 Mt. Lemmon Survey.  Observer A. R. Gibbs.  Measurers J. D. Ahern,
    E. C. Beshore, A. Boattini, A. R. Gibbs, A. D. Grauer, R. E. Hill,
    R. A. Kowalski, S. M. Larson.  1.5-m reflector + CCD.
J47 Observatorio Nazaret.  Observer G. Muler.  Measurers J. M. Ruiz, G. Muler.
    0.30-m Schmidt-Cassegrain + CCD.
J95 Great Shefford.  Observer P. Birtwhistle.  0.40-m f/6.0 Schmidt-Cassegrain
    + CCD.

Orbital elements:
    C/2010 G1 (Boattini)
T 2010 Apr. 6.688 TT                                    MPC
q   1.20110              (2000.0)            P               Q
                   Peri.  172.955       -0.277620       -0.253634
                   Node   287.856       +0.827089       +0.427570
e   1.0            Incl.   76.780       +0.488724       -0.867671
From 50 observations 2010 Apr. 5-6.

Ephemeris:
    C/2010 G1 (Boattini)
Date    TT    R. A. (2000) Decl.     Delta      r     Elong.  Phase   m1    m2
2010 04 04    04 04.98   +28 26.8    1.542    1.202    51.2    40.4  14.2
2010 04 14    04 36.58   +21 34.5    1.645    1.207    46.9    37.3  14.4
2010 04 24    05 03.10   +15 17.4    1.756    1.231    43.1    33.9  14.6
2010 05 04    05 26.25   +09 34.9    1.867    1.275    40.1    30.7  14.9
2010 05 14    05 47.24   +04 21.7    1.974    1.334    38.1    27.9  15.2
2010 05 24    06 06.89   -00 29.3    2.074    1.406    37.1    25.8  15.6
2010 06 03    06 25.73   -05 04.7    2.166    1.490    37.2    24.3  15.9
2010 06 13    06 44.16   -09 30.0    2.251    1.581    38.1    23.3  16.3
2010 06 23    07 02.40   -13 49.9    2.329    1.679    39.8    22.8  16.6

Brian G. Marsden             (C) Copyright 2010 MPC           M.P.E.C. 2010-G27

Read MPEC 2010-G26 Read MPEC 2010-G28


MPEC number:

Enter an MPEC number in one of the following forms:

  • 1997-B01 (the full form)
  • J97B01 (the packed version of the full form)
  • B01 (the abbreviated form)

Valid HTML 4.01!